International Falls, MN

8:55 AM CDT on April 30, 2017 (GMT -0500)
Falls International

Weather History for KINL - January, 2013

Change the Weather History Date:

Saturday, January 5, 2013

  Actual Average Record
Temperature  
Mean Temperature 7 °F 4 °F  
Max Temperature 18 °F 15 °F 46 °F (2012)
Min Temperature -4 °F -6 °F -40 °F (1909)
Degree Days  
Heating Degree Days 58 61  
Month to date heating degree days 277 301  
Since 1 July heating degree days 4408 4476  
Cooling Degree Days 0 0  
Month to date cooling degree days 0 0  
Year to date cooling degree days 0 0  
Moisture  
Dew Point 4 °F    
Average Humidity 88    
Maximum Humidity 96    
Minimum Humidity 79    
Precipitation  
Precipitation T in 0.02 in 0.40 in (1910)
Month to date precipitation 0.07 0.12  
Year to date precipitation 0.07 0.12  
Snow  
Snow 0.20 in 0.50 in 4.00 in (2000)
Month to date snowfall 1.6 2.6  
Since 1 July snowfall 26.9 33.6  
Snow Depth 8.00 in    
Sea Level Pressure  
Sea Level Pressure 30.02 in    
Wind  
Wind Speed 2 mph (NNE)    
Max Wind Speed 9 mph    
Max Gust Speed 10 mph    
Visibility 5 miles    
Events Fog    
T = Trace of Precipitation, MM = Missing Value Source: NWS Daily Summary

Daily Weather History Graph

Daily Weather History Graph

Search for Another Location

Airport or City:

Trip Planner

Search our weather history database for the weather conditions in past years. The results will help you decide how hot, cold, wet, or windy it might be!

Date:

Astronomy

Jan. 05, 2013 Rise Set
Actual Time 8:05 AM CST 4:33 PM CST
Civil Twilight 7:28 AM CST 5:09 PM CST
Nautical Twilight 6:49 AM CST 5:49 PM CST
Astronomical Twilight 6:11 AM CST 6:27 PM CST
Moon 12:55 AM CST (1/5) 11:38 AM CST (1/5)
Length of Visible Light 9h 41m
Length of Day
8h 28m
Last Quarter, 44% of the Moon is Illuminated
Jan 5
Last Quarter
Jan 11
New
Jan 18
First Quarter
Jan 26
Full
Feb 3
Last Quarter

Hourly Weather History & Observations

Time (CST) Temp. Windchill Dew Point Humidity Pressure Visibility Wind Dir Wind Speed Gust Speed Precip Events Conditions
12:55 AM -0.9 °F - -5.1 °F 83% 30.12 in 8.0 mi Calm Calm - N/A   Clear
1:11 AM -0.4 °F - -0.4 °F 100% 30.03 in 2.0 mi Calm Calm - N/A   Clear
1:15 AM -2.2 °F - -2.2 °F 100% 30.03 in 3.0 mi Calm Calm - N/A   Partly Cloudy
1:28 AM -2.2 °F - -5.8 °F 85% 30.03 in 9.0 mi Calm Calm - N/A   Mostly Cloudy
1:42 AM -0.4 °F - -4.0 °F 85% 30.03 in 1.8 mi Calm Calm - N/A   Overcast
1:49 AM -0.4 °F - -4.0 °F 85% 30.03 in 0.2 mi Calm Calm - N/A Fog Light Freezing Fog
1:55 AM -2.0 °F - -4.0 °F 91% 30.11 in 0.2 mi Calm Calm - N/A Fog Light Freezing Fog
2:08 AM -2.2 °F - -5.8 °F 85% 30.03 in 0.5 mi Calm Calm - N/A Fog Light Freezing Fog
2:22 AM -2.2 °F - -4.0 °F 92% 30.03 in 0.2 mi Calm Calm - N/A Fog Light Freezing Fog
2:55 AM -0.9 °F - -4.0 °F 87% 30.12 in 0.2 mi Calm Calm - N/A Fog Light Freezing Fog
3:28 AM 1.4 °F -6.2 °F -0.4 °F 92% 30.02 in 0.5 mi SE 3.5 mph - N/A Fog Light Freezing Fog
3:40 AM 1.4 °F -6.2 °F -0.4 °F 92% 30.02 in 1.8 mi ESE 3.5 mph - N/A   Overcast
3:49 AM 1.4 °F - -0.4 °F 92% 30.02 in 3.0 mi Calm Calm - N/A   Overcast
3:55 AM 1.0 °F - -2.0 °F 87% 30.11 in 7.0 mi Calm Calm - N/A   Overcast
4:15 AM 1.4 °F -6.2 °F -0.4 °F 92% 30.01 in 1.8 mi ESE 3.5 mph - N/A   Overcast
4:25 AM -0.4 °F - -0.4 °F 100% 30.00 in 0.5 mi Calm Calm - N/A Fog Light Freezing Fog
4:38 AM 1.4 °F - -2.2 °F 85% 30.01 in 0.2 mi Calm Calm - N/A Fog Light Freezing Fog
4:44 AM 3.2 °F - -0.4 °F 85% 30.01 in 1.0 mi Calm Calm - N/A   Mist
4:47 AM 3.2 °F - -0.4 °F 85% 30.01 in 4.0 mi Calm Calm - N/A   Overcast
4:55 AM 3.0 °F - 1.0 °F 91% 30.09 in 3.0 mi Calm Calm - N/A   Overcast
4:58 AM 3.2 °F - 1.4 °F 92% 30.00 in 0.8 mi Calm Calm - N/A   Mist
5:07 AM 3.2 °F - 1.4 °F 92% 30.00 in 0.2 mi Calm Calm - N/A Fog Light Freezing Fog
5:32 AM 3.2 °F - -0.4 °F 85% 29.99 in 0.8 mi Calm Calm - N/A   Mist
5:40 AM 3.2 °F - 1.4 °F 92% 29.99 in 1.2 mi Calm Calm - N/A   Overcast
5:50 AM 3.2 °F - 1.4 °F 92% 29.99 in 0.8 mi Calm Calm - N/A   Mist
5:55 AM 3.0 °F - -0.0 °F 87% 30.09 in 0.8 mi Calm Calm - N/A   Mist
6:15 AM 3.2 °F - 1.4 °F 92% 29.98 in 2.0 mi Calm Calm - N/A   Overcast
6:22 AM 3.2 °F - 1.4 °F 92% 29.98 in 0.8 mi Calm Calm - N/A   Mist
6:35 AM 3.2 °F - 1.4 °F 92% 29.98 in 2.5 mi Calm Calm - N/A   Overcast
6:42 AM 3.2 °F - 1.4 °F 92% 29.98 in 9.0 mi Calm Calm - N/A   Overcast
6:55 AM 3.9 °F - 1.0 °F 88% 30.08 in 8.0 mi Calm Calm - N/A   Overcast
7:16 AM 3.2 °F -4.2 °F 1.4 °F 92% 29.97 in 2.5 mi ENE 3.5 mph - N/A   Overcast
7:23 AM 3.2 °F - 1.4 °F 92% 29.97 in 5.0 mi Calm Calm - N/A   Overcast
7:52 AM 3.2 °F - 1.4 °F 92% 29.97 in 0.8 mi Calm Calm - N/A   Overcast
7:55 AM 3.9 °F - 1.0 °F 88% 30.06 in 0.5 mi Calm Calm - N/A Fog Light Freezing Fog
8:26 AM 3.2 °F - 1.4 °F 92% 29.97 in 2.0 mi Calm Calm - N/A   Overcast
8:34 AM 3.2 °F -4.2 °F 1.4 °F 92% 29.97 in 6.0 mi NNE 3.5 mph - N/A   Overcast
8:55 AM 5.0 °F -2.1 °F 1.9 °F 87% 30.08 in 8.0 mi East 3.5 mph - N/A   Overcast
9:55 AM 6.1 °F -0.9 °F 3.0 °F 87% 30.08 in 2.0 mi NNE 3.5 mph - N/A   Overcast
10:03 AM 6.8 °F -0.1 °F 3.2 °F 85% 29.98 in 1.5 mi NNE 3.5 mph - N/A   Overcast
10:19 AM 8.6 °F 0.1 °F 3.2 °F 79% 29.98 in 3.0 mi NNE 4.6 mph - N/A   Overcast
10:46 AM 10.4 °F - 6.8 °F 85% 29.97 in 5.0 mi Calm Calm - N/A   Scattered Clouds
10:55 AM 10.0 °F 3.6 °F 6.1 °F 84% 30.08 in 3.0 mi NNE 3.5 mph - N/A   Scattered Clouds
11:00 AM 10.4 °F - 6.8 °F 85% 29.97 in 2.5 mi Calm Calm - N/A   Mostly Cloudy
11:11 AM 12.2 °F - 8.6 °F 85% 29.97 in 5.0 mi Calm Calm - N/A   Scattered Clouds
11:23 AM 10.4 °F - 8.6 °F 92% 29.96 in 3.0 mi Calm Calm - N/A   Mostly Cloudy
11:37 AM 12.2 °F - 8.6 °F 85% 29.95 in 7.0 mi Calm Calm - N/A   Scattered Clouds
11:55 AM 14.0 °F - 10.0 °F 84% 30.04 in 10.0 mi Calm Calm - N/A   Partly Cloudy
12:55 PM 16.0 °F 7.4 °F 10.9 °F 81% 30.01 in 10.0 mi NNW 5.8 mph - N/A   Clear
1:02 PM 15.8 °F 8.6 °F 10.4 °F 79% 29.91 in 5.0 mi NNW 4.6 mph - N/A   Haze
1:36 PM 15.8 °F 8.6 °F 10.4 °F 79% 29.91 in 10.0 mi NNE 4.6 mph - N/A   Mostly Cloudy
1:55 PM 16.0 °F 8.8 °F 10.9 °F 81% 30.00 in 10.0 mi North 4.6 mph - N/A   Mostly Cloudy
2:09 PM 17.6 °F 12.3 °F 12.2 °F 79% 29.91 in 10.0 mi North 3.5 mph - N/A   Mostly Cloudy
2:55 PM 17.1 °F 11.7 °F 12.9 °F 84% 30.00 in 10.0 mi North 3.5 mph - N/A   Overcast
3:47 PM 15.8 °F 10.2 °F 12.2 °F 86% 29.92 in 10.0 mi NE 3.5 mph - N/A   Scattered Clouds
3:55 PM 16.0 °F - 12.0 °F 84% 30.01 in 10.0 mi Calm Calm - N/A   Partly Cloudy
4:55 PM 14.0 °F - 12.0 °F 92% 30.02 in 10.0 mi Calm Calm - N/A   Mostly Cloudy
5:39 PM 14.0 °F - 10.4 °F 86% 29.92 in 10.0 mi Calm Calm - N/A   Overcast
5:55 PM 12.9 °F - 10.0 °F 88% 30.02 in 10.0 mi Calm Calm - N/A   Mostly Cloudy
6:55 PM 10.9 °F - 9.0 °F 92% 30.03 in 10.0 mi Calm Calm - N/A   Overcast
7:55 PM 16.0 °F 7.4 °F 12.9 °F 88% 30.05 in 10.0 mi NW 5.8 mph - N/A   Overcast
8:55 PM 15.1 °F 5.2 °F 12.0 °F 88% 30.06 in 10.0 mi NW 6.9 mph - N/A   Overcast
9:18 PM 15.8 °F 5.1 °F 12.2 °F 86% 29.97 in 10.0 mi NW 8.1 mph - N/A   Overcast
9:55 PM 15.1 °F 5.2 °F 12.0 °F 88% 30.06 in 10.0 mi NW 6.9 mph - N/A   Overcast
10:38 PM 15.8 °F 6.1 °F 12.2 °F 86% 29.98 in 10.0 mi North 6.9 mph - N/A   Overcast
10:55 PM 15.1 °F 5.2 °F 10.9 °F 84% 30.06 in 10.0 mi North 6.9 mph - N/A   Overcast
11:02 PM 15.8 °F 8.6 °F 10.4 °F 79% 29.98 in 10.0 mi North 4.6 mph - N/A   Overcast
11:55 PM 14.0 °F 6.5 °F 10.0 °F 84% 30.07 in 10.0 mi NNW 4.6 mph - N/A   Overcast